PBO Station Position Time Series. Reference Frame : NAM14
Format Version,1.1.0
4-character ID,P396
Station name,RoosBC026GOR2007
Begin Date, 2007-03-02
End Date, 2019-10-07
Release Date, 2019-10-08
Reference position, 45.3095134849 North Latitude, -123.8228955630 East Longitude, 54.56876 meters elevation,
Date, North (mm), East (mm), Vertical (mm), North Std. Deviation (mm), East Std. Deviation (mm),              Vertical Std. Deviation (mm), Quality,
2007-03-02,0.00, 0.00, 0.00, 2.26, 1.66, 7.47, repro,
2007-03-03,-0.40, 0.04, -6.12, 2.25, 1.63, 7.38, repro,
2007-03-04,-2.01, 1.53, 8.69, 2.25, 1.65, 7.50, repro,
2007-03-05,-1.20, 0.79, 14.31, 2.42, 1.79, 8.06, repro,
2007-03-06,-2.86, 0.27, 8.42, 2.26, 1.65, 7.52, repro,
2007-03-07,-3.30, -1.98, 16.88, 2.27, 1.65, 7.54, repro,
2007-03-08,-1.26, -1.74, 13.77, 2.25, 1.64, 7.48, repro,
2007-03-09,-2.42, -0.98, 9.07, 2.33, 1.67, 7.64, repro,
2007-03-10,-1.19, 0.46, 3.79, 2.33, 1.68, 7.75, repro,
2007-03-11,-4.14, -4.95, -1.37, 2.26, 1.64, 7.51, repro,
2007-03-12,-1.05, -0.68, -7.88, 2.27, 1.64, 7.49, repro,
2007-03-13,-1.70, -0.15, 15.34, 2.23, 1.60, 7.36, repro,
2007-03-14,-1.14, -0.08, 5.38, 2.23, 1.60, 7.34, repro,
2007-03-15,-0.96, 0.48, 11.68, 2.25, 1.63, 7.40, repro,
2007-03-16,-0.00, 1.67, 10.41, 2.24, 1.63, 7.37, repro,
2007-03-17,1.00, 0.78, 11.80, 2.22, 1.60, 7.27, repro,
2007-03-18,-2.71, -0.21, 6.33, 2.20, 1.60, 7.26, repro,
2007-03-19,-1.88, -0.75, 15.71, 2.28, 1.63, 7.55, repro,
2007-03-20,-2.83, -0.91, 16.29, 2.49, 1.68, 7.66, repro,
2007-03-21,-1.60, 1.13, 18.58, 2.77, 1.86, 8.46, repro,
2007-03-22,-1.02, 0.88, 18.08, 2.24, 1.63, 7.38, repro,
2007-03-23,-2.57, 0.70, 14.60, 2.20, 1.60, 7.24, repro,
2007-03-24,-1.85, -0.65, 7.81, 2.22, 1.60, 7.33, repro,
2007-03-25,0.29, 0.60, 18.33, 2.62, 1.96, 8.84, repro,
2007-03-26,-1.47, -0.19, 13.22, 2.28, 1.63, 7.37, repro,
2007-03-27,-3.83, 1.53, 8.64, 2.31, 1.65, 7.44, repro,
2007-03-28,-0.89, 1.64, 9.10, 2.55, 1.79, 7.98, repro,
2007-03-29,-1.71, 1.42, 9.64, 2.22, 1.60, 7.30, repro,
2007-03-30,0.63, 0.61, 10.60, 2.21, 1.59, 7.21, repro,
2007-03-31,-0.72, 0.95, 8.50, 2.29, 1.60, 7.35, repro,
2007-04-01,-2.05, 0.69, 14.96, 3.95, 2.51, 11.56, repro,
2007-04-05,3.39, 3.23, 7.98, 5.86, 3.96, 18.76, repro,
2007-04-06,-17.69, -20.74, 67.67, 198.76, 325.57, 1287.56, repro,
2007-04-10,1.24, 0.28, 15.63, 2.98, 2.30, 10.41, repro,
2007-04-11,-0.38, 0.02, 23.00, 2.22, 1.58, 7.24, repro,
2007-04-12,-0.21, 1.87, 16.59, 2.23, 1.59, 7.23, repro,
2007-04-13,-2.29, -1.36, -1.92, 4.96, 3.97, 21.79, repro,
2007-04-14,-5.29, -2.17, 36.01, 4.09, 3.59, 17.98, repro,
2007-04-15,-2.82, 1.21, 20.99, 4.07, 3.24, 16.54, repro,
2007-04-16,-2.19, -0.46, 3.62, 4.97, 4.65, 22.17, repro,
2007-04-17,-3.83, 2.47, 30.67, 5.40, 4.60, 23.85, repro,
2007-04-18,-7.60, 3.00, -4.52, 5.36, 4.69, 22.22, repro,
2007-04-19,-2.90, 2.73, -0.22, 4.81, 4.07, 18.91, repro,
2007-04-20,0.31, 3.93, 29.47, 4.21, 3.61, 17.02, repro,
2007-04-21,-1.54, -1.29, 19.76, 4.50, 4.13, 19.58, repro,
2007-04-22,-5.74, 3.91, 42.67, 4.60, 3.63, 18.68, repro,
2007-04-23,-1.35, 4.69, 22.04, 4.22, 3.58, 16.94, repro,
2007-04-24,-4.43, -1.31, 0.92, 4.67, 3.90, 19.51, repro,
2007-04-25,-2.78, 2.74, 28.67, 4.40, 3.83, 18.35, repro,
2007-04-26,-2.13, 3.79, 27.86, 4.05, 3.55, 16.94, repro,
2007-04-27,-3.69, 0.88, 16.27, 4.20, 3.64, 18.29, repro,
2007-04-28,-0.43, 1.89, 22.39, 4.46, 3.39, 17.77, repro,
2007-04-29,-1.63, -0.89, 26.91, 4.23, 3.52, 17.28, repro,
2007-04-30,-2.45, 2.21, 23.51, 4.06, 3.95, 18.15, repro,
2007-05-01,-1.69, 4.81, 7.40, 4.44, 3.63, 18.07, repro,
2007-05-02,-1.06, 1.61, 7.19, 4.37, 3.63, 17.46, repro,
2007-05-03,0.24, 2.66, 29.54, 4.71, 4.05, 19.54, repro,
2007-05-04,-2.83, -0.33, 19.35, 4.72, 3.95, 19.33, repro,
2007-05-05,-1.74, 2.37, 5.84, 4.46, 3.70, 18.69, repro,
2007-05-06,-0.34, 0.32, 3.41, 4.05, 3.54, 16.96, repro,
2007-05-07,-2.03, 2.47, 13.92, 3.65, 3.02, 14.68, repro,
2007-05-08,1.42, -0.91, 16.75, 3.02, 2.20, 11.15, repro,
2007-05-09,0.71, -0.72, 15.45, 2.23, 1.58, 7.33, repro,
2007-05-10,1.43, -4.03, 10.89, 2.45, 1.73, 8.07, repro,
2007-05-11,0.50, -1.88, 9.54, 2.39, 1.68, 7.81, repro,
2007-05-12,-0.74, -0.97, 9.96, 2.22, 1.57, 7.25, repro,
2007-05-13,0.48, -2.00, 12.91, 2.29, 1.62, 7.45, repro,
2007-05-14,1.20, -1.57, 7.11, 2.28, 1.61, 7.46, repro,
2007-05-15,0.96, -1.84, 9.22, 2.31, 1.65, 7.67, repro,
2007-05-16,0.04, -2.17, 12.20, 2.23, 1.58, 7.30, repro,
2007-05-17,0.30, -2.23, 13.08, 2.27, 1.62, 7.49, repro,
2007-05-18,0.44, -2.03, 12.98, 2.30, 1.64, 7.54, repro,
2007-05-19,1.66, -3.92, 15.86, 2.27, 1.59, 7.40, repro,
2007-05-20,1.51, -2.60, 11.62, 2.31, 1.64, 7.56, repro,
2007-05-21,-0.27, -2.61, 20.63, 2.25, 1.59, 7.38, repro,
2007-05-22,-0.19, -2.10, 14.42, 2.26, 1.59, 7.35, repro,
2007-05-23,-2.12, -3.02, 4.57, 2.25, 1.60, 7.33, repro,
2007-05-24,1.23, -1.37, 13.33, 2.38, 1.74, 7.79, repro,
2007-05-25,1.94, -2.09, 8.39, 2.26, 1.59, 7.37, repro,
2007-05-26,2.04, -2.16, 12.69, 2.25, 1.59, 7.32, repro,
2007-05-27,-0.12, -3.02, 12.96, 2.27, 1.59, 7.35, repro,
2007-05-28,0.13, -1.61, 13.25, 2.25, 1.58, 7.29, repro,
2007-05-29,1.37, -2.75, 12.83, 2.64, 1.76, 8.14, repro,
2007-05-30,1.96, -3.04, 9.72, 2.30, 1.59, 7.38, repro,
2007-05-31,0.70, -1.72, 10.53, 2.30, 1.63, 7.54, repro,
2007-06-01,0.23, -2.75, 10.39, 2.30, 1.61, 7.46, repro,
2007-06-02,0.77, -3.38, 14.72, 2.24, 1.59, 7.33, repro,
2007-06-03,0.99, -3.27, 16.33, 2.27, 1.61, 7.39, repro,
2007-06-04,2.33, -2.89, 30.31, 2.97, 1.93, 9.05, repro,
2007-06-05,1.03, -1.82, 17.26, 2.32, 1.61, 7.55, repro,
2007-06-06,2.45, -4.35, 10.20, 2.25, 1.59, 7.35, repro,
2007-06-07,-0.12, -2.18, 15.39, 2.31, 1.60, 7.47, repro,
2007-06-08,1.23, -2.09, 9.64, 2.25, 1.58, 7.28, repro,
2007-06-09,0.86, -3.64, 9.37, 2.25, 1.61, 7.39, repro,
2007-06-10,0.94, -3.29, 9.44, 2.26, 1.60, 7.41, repro,
2007-06-11,2.42, -2.40, 12.52, 2.27, 1.62, 7.45, repro,
2007-06-12,0.26, -1.94, 9.96, 2.28, 1.63, 7.45, repro,
2007-06-13,0.97, -1.71, 12.13, 2.29, 1.64, 7.49, repro,
2007-06-14,2.29, -2.10, 7.95, 2.30, 1.65, 7.54, repro,
2007-06-15,2.06, -2.43, 15.02, 2.25, 1.59, 7.31, repro,
2007-06-16,2.65, -1.72, 10.98, 2.24, 1.59, 7.29, repro,
2007-06-17,1.65, -2.42, 12.79, 2.25, 1.59, 7.29, repro,
2007-06-18,1.78, -2.67, 12.53, 2.25, 1.59, 7.29, repro,
2007-06-19,2.08, -2.49, 11.69, 2.27, 1.58, 7.35, repro,
2007-06-20,1.90, -3.53, 6.36, 2.26, 1.60, 7.33, repro,
2007-06-21,1.31, -2.10, 15.83, 2.32, 1.64, 7.58, repro,
2007-06-22,0.78, -4.70, 18.48, 2.26, 1.60, 7.38, repro,
2007-06-23,0.97, -4.47, 9.95, 2.24, 1.60, 7.34, repro,
2007-06-24,0.41, -3.95, 15.54, 2.30, 1.65, 7.64, repro,
2007-06-25,1.78, -5.43, 16.36, 2.27, 1.60, 7.40, repro,
2007-06-26,0.37, -4.44, 12.84, 2.24, 1.59, 7.33, repro,
2007-06-27,0.05, -4.28, 16.96, 2.27, 1.60, 7.42, repro,
2007-06-28,-0.37, -6.38, 12.18, 2.26, 1.60, 7.38, repro,
2007-06-29,-0.34, -5.75, 13.07, 2.25, 1.60, 7.38, repro,
2007-06-30,1.97, -5.68, 11.62, 2.25, 1.58, 7.33, repro,
2007-07-01,2.51, -6.46, 19.43, 2.35, 1.62, 7.41, repro,
2007-07-02,2.28, -5.71, 17.17, 2.26, 1.58, 7.30, repro,
2007-07-03,0.44, -4.37, 14.57, 2.26, 1.60, 7.37, repro,
2007-07-04,0.89, -4.55, 11.79, 2.24, 1.58, 7.27, repro,
2007-07-05,-3.71, -3.97, 17.75, 2.95, 1.92, 9.01, repro,
2007-07-06,-0.87, -5.64, 15.99, 2.97, 1.92, 9.14, repro,
2007-07-07,0.18, -4.90, 18.17, 2.27, 1.59, 7.39, repro,
2007-07-08,-1.10, -4.86, 16.67, 2.27, 1.58, 7.29, repro,
2007-07-09,-0.56, -5.60, 17.61, 2.25, 1.59, 7.29, repro,
2007-07-10,-0.84, -5.30, 17.48, 2.27, 1.59, 7.34, repro,
2007-07-11,2.35, -6.05, 9.57, 2.92, 1.91, 8.98, repro,
2007-07-12,0.07, -5.10, 29.15, 2.27, 1.60, 7.41, repro,
2007-07-13,0.66, -4.32, 12.26, 2.32, 1.64, 7.61, repro,
2007-07-14,-0.40, -7.06, 14.23, 2.28, 1.64, 7.54, repro,
2007-07-15,-1.40, -7.09, 22.12, 2.26, 1.61, 7.36, repro,
2007-07-16,0.99, -7.22, 13.14, 2.31, 1.62, 7.39, repro,
2007-07-17,1.29, -7.70, 18.30, 2.26, 1.59, 7.27, repro,
2007-07-18,-0.32, -6.52, 26.76, 2.28, 1.59, 7.43, repro,
2007-07-19,-0.27, -4.60, 30.15, 2.28, 1.59, 7.39, repro,
2007-07-20,0.29, -6.27, 22.09, 2.28, 1.60, 7.40, repro,
2007-07-21,0.80, -8.02, 17.28, 2.30, 1.61, 7.44, repro,
2007-07-22,-3.91, -6.22, 20.88, 2.27, 1.60, 7.36, repro,
2007-07-23,-1.68, -5.68, 24.66, 2.28, 1.61, 7.46, repro,
2007-07-24,0.93, -6.09, 26.82, 2.31, 1.64, 7.64, repro,
2007-07-25,0.31, -6.00, 25.14, 2.29, 1.60, 7.44, repro,
2007-07-26,0.42, -6.09, 25.22, 2.33, 1.61, 7.56, repro,
2007-07-27,0.26, -4.63, 18.98, 2.29, 1.59, 7.34, repro,
2007-07-28,1.19, -7.17, 19.12, 2.27, 1.60, 7.42, repro,
2007-07-29,-0.51, -5.48, 25.47, 2.24, 1.58, 7.26, repro,
2007-07-30,-0.33, -4.87, 23.76, 2.77, 1.77, 8.57, repro,
2007-07-31,0.15, -4.88, 16.29, 2.69, 1.76, 8.36, repro,
2007-08-01,0.42, -5.70, 25.88, 2.27, 1.59, 7.34, repro,
2007-08-02,-0.87, -5.42, 17.92, 2.26, 1.58, 7.33, repro,
2007-08-03,-0.36, -6.57, 22.67, 2.21, 1.57, 7.17, repro,
2007-08-04,-0.29, -5.26, 25.81, 2.23, 1.57, 7.26, repro,
2007-08-05,1.06, -5.99, 21.58, 2.32, 1.59, 7.43, repro,
2007-08-06,1.18, -6.06, 27.38, 2.37, 1.64, 7.58, repro,
2007-08-07,0.14, -6.10, 26.31, 2.33, 1.63, 7.52, repro,
2007-08-08,-0.15, -7.13, 23.66, 2.24, 1.58, 7.26, repro,
2007-08-09,-1.68, -5.46, 22.40, 2.77, 1.93, 9.15, repro,
2007-08-10,0.82, -5.67, 21.79, 2.29, 1.58, 7.33, repro,
2007-08-11,0.65, -5.79, 19.69, 2.27, 1.59, 7.38, repro,
2007-08-12,3.32, -6.39, 14.56, 2.24, 1.57, 7.24, repro,
2007-08-13,-1.05, -6.34, 21.94, 2.24, 1.57, 7.25, repro,
2007-08-14,0.87, -6.48, 18.43, 2.40, 1.71, 7.78, repro,
2007-08-15,0.85, -6.48, 26.65, 2.40, 1.70, 7.76, repro,
2007-08-16,0.07, -4.96, 24.67, 2.34, 1.65, 7.57, repro,
2007-08-17,1.40, -8.83, 18.76, 2.38, 1.65, 7.57, repro,
2007-08-18,1.87, -5.95, 24.36, 2.42, 1.69, 7.87, repro,
2007-08-19,1.42, -6.56, 32.39, 2.40, 1.68, 7.82, repro,
2007-08-20,-0.35, -5.14, 25.98, 2.36, 1.64, 7.65, repro,
2007-08-21,0.59, -5.19, 26.59, 2.34, 1.62, 7.50, repro,
2007-08-22,1.62, -6.35, 20.25, 2.39, 1.67, 7.77, repro,
2007-08-23,0.91, -6.55, 25.56, 2.31, 1.58, 7.36, repro,
2007-08-24,1.24, -5.74, 24.57, 2.46, 1.73, 7.89, repro,
2007-08-25,0.21, -6.66, 18.96, 2.38, 1.67, 7.81, repro,
2007-08-26,0.95, -7.13, 29.15, 2.49, 1.79, 8.25, repro,
2007-08-27,0.69, -6.56, 22.69, 2.59, 1.78, 8.21, repro,
2007-08-28,0.18, -7.09, 22.50, 2.35, 1.65, 7.60, repro,
2007-08-29,0.55, -5.99, 21.67, 2.38, 1.65, 7.66, repro,
2007-08-30,0.48, -6.59, 23.95, 2.36, 1.65, 7.64, repro,
2007-08-31,-0.41, -6.62, 25.39, 2.42, 1.70, 7.76, repro,
2007-09-01,1.32, -6.90, 27.14, 2.37, 1.67, 7.79, repro,
2007-09-02,-0.03, -7.13, 29.52, 2.44, 1.70, 7.87, repro,
2007-09-03,2.42, -5.39, 33.33, 2.47, 1.75, 8.07, repro,
2007-09-04,1.27, -8.14, 18.22, 2.44, 1.70, 7.83, repro,
2007-09-05,0.85, -6.96, 29.03, 2.38, 1.65, 7.62, repro,
2007-09-06,-1.88, -5.98, 30.98, 2.38, 1.65, 7.70, repro,
2007-09-07,0.50, -6.35, 32.76, 2.41, 1.67, 7.87, repro,
2007-09-08,1.78, -7.43, 28.69, 2.45, 1.70, 7.87, repro,
2007-09-09,2.94, -5.52, 12.91, 2.47, 1.73, 7.96, repro,
2007-09-10,1.50, -5.96, 21.61, 2.45, 1.76, 8.02, repro,
2007-09-11,0.08, -5.80, 26.44, 2.38, 1.67, 7.70, repro,
2007-09-12,1.01, -6.59, 26.47, 2.38, 1.67, 7.71, repro,
2007-09-13,1.41, -6.47, 27.19, 2.41, 1.67, 7.80, repro,
2007-09-14,0.64, -7.16, 26.03, 2.38, 1.67, 7.69, repro,
2007-09-15,1.16, -6.37, 18.34, 2.49, 1.76, 8.14, repro,
2007-09-16,1.40, -5.58, 30.06, 2.37, 1.68, 7.68, repro,
2007-09-17,0.69, -6.19, 33.39, 2.43, 1.71, 7.93, repro,
2007-09-18,1.84, -5.65, 27.35, 2.33, 1.66, 7.66, repro,
2007-09-19,0.59, -6.21, 31.14, 2.29, 1.61, 7.47, repro,
2007-09-20,0.30, -8.26, 25.01, 2.26, 1.59, 7.32, repro,
2007-09-21,-0.16, -5.32, 27.09, 2.36, 1.64, 7.62, repro,
2007-09-22,0.36, -5.10, 24.14, 2.42, 1.69, 7.78, repro,
2007-09-23,1.16, -5.25, 23.72, 2.37, 1.64, 7.58, repro,
2007-09-24,0.70, -4.47, 26.68, 2.44, 1.67, 7.77, repro,
2007-09-25,1.57, -5.69, 14.94, 2.38, 1.63, 7.61, repro,
2007-09-26,-0.08, -6.58, 29.92, 2.39, 1.61, 7.48, repro,
2007-09-27,-1.33, -5.80, 27.09, 2.36, 1.61, 7.56, repro,
2007-09-28,0.13, -4.99, 29.74, 2.40, 1.69, 7.74, repro,
2007-09-29,2.53, -6.66, 31.50, 2.37, 1.67, 7.65, repro,
2007-09-30,-0.43, -7.36, 23.08, 2.39, 1.69, 7.79, repro,
2007-10-01,-0.33, -8.21, 27.85, 2.40, 1.69, 7.76, repro,
2007-10-02,0.66, -7.53, 24.49, 2.41, 1.71, 7.83, repro,
2007-10-03,-2.33, -8.75, 29.41, 2.38, 1.67, 7.83, repro,
2007-10-04,-0.96, -5.01, 27.87, 2.32, 1.63, 7.65, repro,
2007-10-05,2.55, -4.62, 26.83, 2.44, 1.74, 8.03, repro,
2007-10-06,1.04, -6.03, 23.14, 2.47, 1.72, 7.91, repro,
2007-10-07,0.39, -5.98, 16.48, 2.46, 1.72, 8.01, repro,
2007-10-08,2.24, -4.62, 18.31, 2.74, 1.82, 8.60, repro,
2007-10-09,-0.18, -5.25, 29.40, 2.54, 1.81, 8.33, repro,
2007-10-10,1.26, -5.64, 21.71, 2.56, 1.73, 8.19, repro,
2007-10-11,1.39, -4.24, 22.01, 2.44, 1.76, 7.96, repro,
2007-10-12,0.59, -6.48, 30.89, 2.31, 1.63, 7.49, repro,
2007-10-13,-0.51, -6.25, 30.88, 2.40, 1.67, 7.72, repro,
2007-10-14,0.19, -5.28, 29.09, 2.32, 1.63, 7.53, repro,
2007-10-15,1.14, -5.84, 27.72, 2.31, 1.62, 7.50, repro,
2007-10-16,2.24, -8.39, 32.00, 2.40, 1.72, 7.75, repro,
2007-10-17,0.23, -5.43, 26.71, 2.32, 1.63, 7.52, repro,
2007-10-18,3.12, -6.99, 28.58, 2.33, 1.64, 7.63, repro,
2007-10-19,0.34, -7.87, 28.80, 2.29, 1.59, 7.42, repro,
2007-10-20,1.47, -6.76, 27.22, 2.34, 1.64, 7.57, repro,
2007-10-21,1.00, -6.09, 22.42, 2.31, 1.61, 7.47, repro,
2007-10-22,-0.79, -2.80, 21.38, 2.29, 1.60, 7.43, repro,
2007-10-23,0.91, -3.22, 15.91, 2.44, 1.70, 7.81, repro,
2007-10-24,0.86, -5.25, 16.81, 2.41, 1.72, 7.94, repro,
2007-10-25,-0.77, -3.73, 26.67, 2.32, 1.63, 7.52, repro,
2007-10-26,0.22, -3.63, 25.35, 2.33, 1.67, 7.68, repro,
2007-10-27,0.24, -4.03, 14.92, 2.35, 1.67, 7.62, repro,
2007-10-28,0.99, -3.75, 17.28, 2.28, 1.61, 7.39, repro,
2007-10-29,-0.19, -4.67, 22.48, 2.28, 1.64, 7.51, repro,
2007-10-30,-0.09, -5.58, 18.94, 2.63, 1.79, 8.34, repro,
2007-10-31,0.18, -4.40, 20.71, 2.30, 1.63, 7.53, repro,
2007-11-01,1.04, -3.22, 24.56, 2.28, 1.60, 7.37, repro,
2007-11-02,2.01, -4.96, 21.21, 2.25, 1.59, 7.29, repro,
2007-11-03,0.74, -4.47, 22.19, 2.27, 1.61, 7.38, repro,
2007-11-04,1.13, -5.34, 16.48, 2.39, 1.67, 7.55, repro,
2007-11-05,1.13, -5.04, 23.00, 2.24, 1.60, 7.29, repro,
2007-11-06,0.65, -4.63, 17.76, 2.26, 1.63, 7.53, repro,
2007-11-07,1.64, -5.53, 18.14, 2.24, 1.58, 7.26, repro,
2007-11-08,0.06, -4.30, 18.10, 2.31, 1.62, 7.45, repro,
2007-11-09,-2.66, -5.56, 25.44, 2.29, 1.64, 7.46, repro,
2007-11-10,1.23, -7.93, 26.29, 2.23, 1.60, 7.28, repro,
2007-11-11,0.19, -5.63, 28.22, 2.26, 1.59, 7.32, repro,
2007-11-12,1.71, -5.05, 21.54, 2.27, 1.59, 7.39, repro,
2007-11-13,-1.93, -5.60, 21.46, 2.25, 1.58, 7.30, repro,
2007-11-14,-0.81, -3.75, 19.84, 2.23, 1.59, 7.28, repro,
2007-11-15,0.28, -7.46, 13.72, 2.29, 1.63, 7.50, repro,
2007-11-16,-1.36, -4.53, 29.61, 2.28, 1.62, 7.48, repro,
2007-11-17,0.57, -5.31, 27.60, 2.22, 1.58, 7.28, repro,
2007-11-18,0.45, -4.54, 22.64, 2.32, 1.66, 7.64, repro,
2007-11-19,-1.44, -5.58, 17.68, 2.25, 1.59, 7.29, repro,
2007-11-20,-0.42, -4.54, 16.11, 2.27, 1.64, 7.43, repro,
2007-11-21,0.38, -3.64, 15.11, 2.26, 1.62, 7.44, repro,
2007-11-22,0.43, -4.77, 8.49, 2.89, 1.93, 9.01, repro,
2007-11-23,1.16, -4.81, 15.65, 2.34, 1.76, 7.96, repro,
2007-11-24,2.07, -5.48, 17.02, 2.28, 1.63, 7.44, repro,
2007-11-25,1.25, -4.63, 19.68, 2.28, 1.64, 7.42, repro,
2007-11-26,0.51, -4.20, 15.61, 2.31, 1.71, 7.72, repro,
2007-11-27,-0.84, -3.34, 29.12, 2.39, 1.75, 7.92, repro,
2007-11-28,1.78, -4.52, 13.01, 2.38, 1.76, 7.90, repro,
2007-11-29,-0.97, -4.14, 19.64, 2.30, 1.67, 7.63, repro,
2007-11-30,1.13, -4.88, 19.69, 2.35, 1.73, 7.74, repro,
2007-12-01,1.44, -4.47, 22.54, 2.31, 1.70, 7.70, repro,
2007-12-02,2.23, -4.41, 24.22, 2.29, 1.70, 7.73, repro,
2007-12-03,1.89, -7.21, 18.42, 2.47, 1.79, 8.17, repro,
2007-12-04,2.08, -5.68, 20.52, 2.40, 1.79, 8.06, repro,
2007-12-05,0.79, -3.12, 21.72, 2.44, 1.84, 8.40, repro,
2007-12-06,1.56, -3.79, 20.33, 2.53, 1.88, 8.50, repro,
2007-12-07,1.81, -3.42, 12.24, 2.39, 1.81, 8.09, repro,
2007-12-08,1.46, -4.04, 15.82, 2.30, 1.70, 7.70, repro,
2007-12-09,1.51, -3.21, 11.51, 2.54, 1.98, 8.70, repro,
2007-12-10,1.21, -3.56, 21.56, 2.33, 1.75, 7.73, repro,
2007-12-11,1.71, -3.79, 14.47, 2.30, 1.70, 7.63, repro,
2007-12-12,0.02, -4.21, 8.73, 2.32, 1.63, 7.52, repro,
2007-12-13,1.69, -3.53, 12.67, 2.34, 1.67, 7.62, repro,
2007-12-14,1.07, -3.55, 14.68, 2.89, 1.95, 8.98, repro,
2007-12-15,1.81, -4.95, 26.02, 2.28, 1.63, 7.46, repro,
2007-12-16,4.73, -5.17, 18.19, 2.30, 1.63, 7.45, repro,
2007-12-17,-0.15, -6.03, 20.62, 2.48, 1.75, 7.98, repro,
2007-12-18,2.44, -5.98, 24.28, 2.30, 1.62, 7.49, repro,
2007-12-19,0.25, -6.30, 21.72, 2.30, 1.66, 7.58, repro,
2007-12-20,-1.12, -4.37, 30.94, 2.67, 2.09, 9.35, repro,
2007-12-21,1.11, -2.39, 18.56, 2.63, 1.98, 8.88, repro,
2007-12-22,0.09, -4.03, 15.53, 2.35, 1.69, 7.77, repro,
2007-12-23,0.61, -4.41, 17.32, 2.31, 1.65, 7.59, repro,
2007-12-24,0.77, -4.48, 17.38, 2.33, 1.66, 7.67, repro,
2007-12-25,0.45, -2.52, 15.45, 2.42, 1.70, 7.75, repro,
2007-12-26,1.72, -3.83, 14.79, 2.30, 1.65, 7.55, repro,
2007-12-27,2.90, -3.33, -4.62, 2.38, 1.66, 7.72, repro,
2007-12-28,0.88, -5.80, 18.55, 2.36, 1.65, 7.70, repro,
2007-12-29,0.41, -4.11, 17.26, 2.56, 1.71, 8.15, repro,
2007-12-30,-1.41, -4.09, 23.93, 2.36, 1.65, 7.76, repro,
2007-12-31,1.36, -2.87, 7.43, 2.29, 1.60, 7.43, repro,
2008-01-01,-0.10, -2.87, -0.90, 2.29, 1.61, 7.46, repro,
2008-01-02,0.57, -4.08, 14.52, 2.29, 1.59, 7.35, repro,
2008-01-03,-0.24, -5.94, 26.09, 2.32, 1.58, 7.47, repro,
2008-01-04,2.60, -6.06, 27.27, 2.28, 1.58, 7.42, repro,
2008-01-05,-0.38, -6.50, 29.14, 2.29, 1.58, 7.33, repro,
2008-01-06,2.92, -4.79, 15.88, 2.33, 1.64, 7.49, repro,
2008-01-07,0.96, -4.71, 12.09, 2.29, 1.58, 7.35, repro,
2008-01-08,-0.90, -4.32, 18.18, 2.31, 1.59, 7.45, repro,
2008-01-09,-1.95, -5.74, 20.47, 2.34, 1.60, 7.49, repro,
2008-01-10,-0.76, -5.13, 19.88, 2.35, 1.63, 7.59, repro,
2008-01-11,0.77, -4.41, 16.01, 2.26, 1.59, 7.34, repro,
2008-01-12,2.50, -3.91, 13.37, 2.24, 1.60, 7.30, repro,
2008-01-13,-1.72, -2.25, 6.93, 2.26, 1.60, 7.37, repro,
2008-01-14,-1.21, -2.91, 9.76, 2.29, 1.60, 7.44, repro,
2008-01-15,-1.15, -4.05, 11.22, 2.28, 1.59, 7.39, repro,
2008-01-16,0.33, -1.26, 12.74, 2.29, 1.59, 7.40, repro,
2008-01-17,1.29, -1.34, 12.02, 2.29, 1.60, 7.44, repro,
2008-01-18,-0.36, -0.72, 15.90, 2.25, 1.62, 7.43, repro,
2008-01-19,0.04, -2.26, 15.57, 2.27, 1.59, 7.40, repro,
2008-01-20,-0.15, -2.92, 14.94, 2.31, 1.62, 7.46, repro,
2008-01-21,-1.35, -1.17, 16.71, 2.27, 1.59, 7.39, repro,
2008-01-22,0.97, -1.09, 12.88, 2.32, 1.61, 7.46, repro,
2008-01-23,1.23, -0.91, 15.91, 2.32, 1.60, 7.43, repro,
2008-01-24,0.03, -1.62, 18.11, 2.21, 1.58, 7.25, repro,
2008-01-25,0.98, -1.68, 18.21, 2.23, 1.58, 7.28, repro,
2008-01-26,-1.60, -2.80, 25.94, 2.26, 1.60, 7.38, repro,
2008-01-27,0.00, -4.39, 22.06, 2.25, 1.58, 7.27, repro,
2008-01-28,2.00, -4.29, 20.80, 2.25, 1.57, 7.29, repro,
2008-01-29,0.85, -3.55, 20.91, 2.36, 1.70, 7.70, repro,
2008-01-30,-1.56, -2.39, 20.58, 2.37, 1.66, 7.70, repro,
2008-01-31,-1.62, -2.21, 12.34, 2.23, 1.58, 7.25, repro,
2008-02-01,-0.63, -3.82, 16.95, 2.32, 1.63, 7.46, repro,
2008-02-02,0.19, -2.71, 6.88, 2.31, 1.64, 7.50, repro,
2008-02-03,1.76, -1.43, 23.34, 2.27, 1.58, 7.33, repro,
2008-02-04,0.10, -1.70, 13.92, 2.23, 1.59, 7.37, repro,
2008-02-05,0.13, -1.09, 16.56, 2.30, 1.65, 7.53, repro,
2008-02-06,0.11, -2.99, 16.70, 2.31, 1.66, 7.56, repro,
2008-02-07,-0.82, -1.75, 13.83, 2.30, 1.64, 7.55, repro,
2008-02-08,0.05, -4.05, 9.18, 2.24, 1.57, 7.28, repro,
2008-02-09,0.71, 0.38, 8.06, 2.23, 1.57, 7.24, repro,
2008-02-10,-1.03, -2.62, 17.32, 2.22, 1.59, 7.28, repro,
2008-02-11,-0.29, -1.14, 16.25, 2.23, 1.57, 7.21, repro,
2008-02-12,0.64, -1.78, 14.05, 2.26, 1.60, 7.33, repro,
2008-02-13,-1.10, -1.61, 14.22, 2.27, 1.59, 7.33, repro,
2008-02-14,1.79, -1.66, 11.42, 2.24, 1.58, 7.27, repro,
2008-02-15,1.78, -2.35, 9.72, 2.26, 1.63, 7.39, repro,
2008-02-16,1.17, -1.56, 14.99, 2.22, 1.57, 7.22, repro,
2008-02-17,-1.22, -1.26, 12.91, 2.22, 1.59, 7.24, repro,
2008-02-18,-0.64, -2.20, 14.58, 2.25, 1.58, 7.28, repro,
2008-02-19,-1.48, -0.95, 14.74, 2.31, 1.59, 7.40, repro,
2008-02-20,-0.04, -1.42, 18.99, 2.22, 1.58, 7.24, repro,
2008-02-21,0.67, -1.42, 20.35, 2.24, 1.58, 7.24, repro,
2008-02-22,-1.88, -5.29, 28.31, 2.26, 1.60, 7.39, repro,
2008-02-23,-0.13, -1.51, 21.99, 2.24, 1.58, 7.25, repro,
2008-02-24,-0.01, -2.08, 21.32, 2.27, 1.60, 7.38, repro,
2008-02-25,0.16, -1.36, 17.11, 2.25, 1.59, 7.29, repro,
2008-02-26,0.22, -2.36, 9.59, 2.23, 1.59, 7.25, repro,
2008-02-27,-1.26, -2.50, 11.06, 2.30, 1.62, 7.52, repro,
2008-02-28,-0.18, -2.25, 12.65, 2.24, 1.59, 7.30, repro,
2008-02-29,-0.24, -3.05, 14.22, 2.29, 1.62, 7.49, repro,
2008-03-01,-0.24, -5.70, 17.68, 2.24, 1.59, 7.28, repro,
2008-03-02,-0.53, -0.51, 18.15, 2.27, 1.64, 7.42, repro,
2008-03-03,-2.20, -3.18, 11.28, 2.25, 1.59, 7.33, repro,
2008-03-04,-0.71, -1.85, 8.75, 2.24, 1.59, 7.28, repro,
2008-03-05,-0.68, -0.37, 15.15, 2.28, 1.65, 7.47, repro,
2008-03-06,0.59, -1.58, 2.17, 2.27, 1.60, 7.38, repro,
2008-03-07,-1.05, -1.26, 13.49, 2.24, 1.58, 7.24, repro,
2008-03-08,-1.82, -0.68, 21.86, 2.31, 1.65, 7.66, repro,
2008-03-09,-0.20, -2.92, 13.57, 2.27, 1.60, 7.36, repro,
2008-03-10,-0.57, -0.75, 10.48, 2.27, 1.61, 7.42, repro,
2008-03-11,-0.72, -4.16, 7.40, 2.30, 1.64, 7.42, repro,
2008-03-12,-0.64, -1.73, 14.59, 2.27, 1.62, 7.49, repro,
2008-03-13,-0.59, -4.74, 21.51, 2.29, 1.63, 7.55, repro,
2008-03-14,0.86, -5.66, 13.79, 2.26, 1.59, 7.34, repro,
2008-03-15,-0.74, -3.29, 22.61, 2.25, 1.59, 7.30, repro,
2008-03-16,-1.24, -1.26, 20.62, 2.44, 1.66, 7.81, repro,
2008-03-17,0.29, -2.89, 13.29, 2.40, 1.74, 8.11, repro,
2008-03-18,-1.17, -4.62, 13.32, 2.28, 1.66, 7.64, repro,
2008-03-19,-0.14, -2.42, 7.61, 2.28, 1.63, 7.48, repro,
2008-03-20,-0.17, -2.37, 11.61, 2.36, 1.66, 7.65, repro,
2008-03-21,2.78, -1.28, 1.36, 2.29, 1.61, 7.44, repro,
2008-03-22,1.27, -2.13, 1.19, 2.33, 1.67, 7.63, repro,
2008-03-23,-0.15, -1.66, 9.37, 2.34, 1.68, 7.85, repro,
2008-03-24,-0.21, -3.20, 10.09, 2.31, 1.64, 7.59, repro,
2008-03-25,-0.08, -1.68, 11.85, 2.37, 1.70, 7.73, repro,
2008-03-26,1.48, -3.63, 10.83, 2.40, 1.71, 7.79, repro,
2008-03-27,1.71, -1.43, 9.79, 2.40, 1.70, 7.77, repro,
2008-03-28,1.85, -2.93, 0.85, 2.31, 1.65, 7.60, repro,
2008-03-29,-1.62, -2.44, 14.46, 2.32, 1.61, 7.54, repro,
2008-03-30,0.58, -2.60, 10.08, 2.29, 1.59, 7.38, repro,
2008-03-31,1.31, -2.33, 11.97, 2.28, 1.58, 7.36, repro,
2008-04-01,1.23, -2.29, 16.08, 2.35, 1.65, 7.56, repro,
2008-04-02,2.69, -0.66, 12.63, 2.74, 1.96, 9.02, repro,
2008-04-03,-0.08, -1.89, 18.72, 2.29, 1.59, 7.46, repro,
2008-04-04,-1.00, -1.42, 12.79, 2.26, 1.58, 7.35, repro,
2008-04-05,-1.10, -2.92, 19.19, 2.30, 1.63, 7.45, repro,
2008-04-06,1.22, -3.85, 13.55, 2.32, 1.63, 7.52, repro,
2008-04-07,0.04, -3.84, 14.18, 2.34, 1.63, 7.58, repro,
2008-04-08,0.03, -2.56, 14.76, 2.30, 1.59, 7.46, repro,
2008-04-09,-0.25, -2.46, 18.99, 2.26, 1.58, 7.39, repro,
2008-04-10,-0.73, -2.24, 13.12, 2.28, 1.59, 7.45, repro,
2008-04-11,-0.43, -0.86, 9.57, 2.35, 1.62, 7.56, repro,
2008-04-12,0.45, -1.44, 7.29, 2.27, 1.58, 7.40, repro,
2008-04-13,1.29, -1.42, 11.73, 2.33, 1.66, 7.62, repro,
2008-04-14,-1.03, -3.52, 26.51, 2.29, 1.61, 7.50, repro,
2008-04-15,-1.65, -1.84, 26.84, 2.31, 1.64, 7.56, repro,
2008-04-16,-1.21, -1.45, 15.00, 2.30, 1.63, 7.45, repro,
2008-04-17,-1.67, -2.57, 16.97, 2.47, 1.66, 7.80, repro,
2008-04-18,0.83, -2.49, 9.42, 2.37, 1.64, 7.61, repro,
2008-04-19,1.44, -2.48, 15.75, 2.32, 1.60, 7.51, repro,
2008-04-20,-1.11, -1.59, 17.85, 2.28, 1.58, 7.38, repro,
2008-04-21,0.31, -0.67, 13.26, 2.53, 1.82, 8.48, repro,
2008-04-22,0.01, -0.85, 16.12, 2.30, 1.58, 7.49, repro,
2008-04-23,1.72, -3.49, 15.72, 2.32, 1.61, 7.61, repro,
2008-04-24,0.84, -2.12, 9.84, 2.31, 1.61, 7.59, repro,
2008-04-25,1.46, -1.04, 10.00, 2.29, 1.58, 7.45, repro,
2008-04-26,-0.99, -1.37, 10.96, 2.36, 1.60, 7.48, repro,
2008-04-27,-1.92, -0.38, 16.16, 2.50, 1.70, 7.91, repro,
2008-04-28,-3.34, -1.76, 14.81, 2.50, 1.66, 7.81, repro,